Location: Bremen
(53.0833°N, 8.8000°E)
Time: 14:20:30
(UTC+02:00)

ISS - Pass Details

Date: 01 May 2025
Orbit: 416 x 419 km, 51.6° (Epoch: 14 May)

Event Time Altitude Azimuth Distance (km) Brightness Sun altitude
Exits shadow 02:14:20 12° 100° (E) 1,367 -1.1 -20.9°
Drops below altitude 10° 02:14:45 10° 96° (E) 1,496 -0.9 -20.9°
Sets 02:17:08 0° 80° (E) 2,363 0.4 -20.8°
